User: anonymous   Login
Location: Çayiçi
(36.4667°N, 30.2333°E)
Time: 09:30:33
(UTC+00:00)
Language:

CZ-4B DEB - Orbit

View from above orbital plane
View from above orbital plane
View from above satellite
View from above satellite

Ground track
Ground track

The orbit data is extracted from the following two-line orbital elements,

1 27433U 02024D   23151.93362201  .00000443  00000-0  26185-3 0  9991
2 27433  99.0512 178.3147 0015355  51.2600 308.9941 14.13012312 84151
Epoch (UTC): 31 May 2023 22:24:24
Eccentricity: 0.0015355
inclination: 99.0512°
perigee height: 838 km
apogee height: 860 km
right ascension of ascending node: 178.3147°
argument of perigee: 51.2600°
revolutions per day: 14.13012312
mean anomaly at epoch: 308.9941°
orbit number at epoch: 8415

The dashed part of the orbit path shows where the satellite is in the earth's shadow,  

DLR